Location: Strawberry
(45.6646°N, 111.9596°W)
Time: 21:41:09
(UTC+00:00)

Courier 1B Rocket - Pass Details

Date: 08 October 2022
Orbit: 920 x 1202 km, 28.3° (Epoch: 03 December)

Event Time Altitude Azimuth Distance (km) Brightness Sun altitude
Rises 00:14:37 0° 218° (SW) 3,936 9.1 6.3°
Reaches altitude 10° 00:19:06 10° 194° (SSW) 2,914 7.9 5.6°
Maximum altitude 00:22:21 14° 167° (SSE) 2,602 7.3 5.0°
Drops below altitude 10° 00:25:31 10° 139° (SE) 2,818 7.2 4.5°
Sets 00:29:42 0° 114° (ESE) 3,707 7.5 3.8°
